OK1FRN-6 Weather Reports


time (UTC)temp
C
wind
direction
speed
KPH
gust
KPH
rain 1hr
cm
rain 24hr
cm
rain mn
cm
humidity
%
barometer
mb
20260505040844 12 333 0.0 0.0 0.00 0.00 0.00 81 1009.9
20260505040338 12 336 0.0 0.0 0.00 0.00 0.00 81 1010.0
20260505035326 12 274 0.0 0.0 0.00 0.00 0.00 80 1010.0
20260505033302 12 311 0.0 0.0 0.00 0.00 0.00 80 1010.2
20260505031745 12 315 0.0 0.0 0.00 0.00 0.00 80 1010.2
20260505031238 12 27 0.0 0.0 0.00 0.00 0.00 80 1010.2
20260505030733 12 17 0.0 0.0 0.00 0.00 0.00 81 1010.2
20260505025721 12 19 0.0 0.0 0.00 0.00 0.00 81 1010.3
20260505025215 12 289 0.0 0.0 0.00 0.00 0.00 79 1010.2
20260505024709 12 350 0.0 0.0 0.00 0.00 0.00 79 1010.3
20260505023657 12 152 0.0 0.0 0.00 0.00 0.00 79 1010.4
20260505023151 12 294 0.0 0.0 0.00 0.00 0.00 78 1010.3
20260505022644 12 277 0.0 0.0 0.00 0.00 0.00 78 1010.4
20260505022138 12 296 0.0 0.0 0.00 0.00 0.00 78 1010.4
20260505020620 12 315 0.0 0.0 0.00 0.00 0.00 78 1010.4
20260505020114 12 285 0.0 0.0 0.00 0.00 0.00 78 1010.4
20260505015608 12 312 0.0 0.0 0.00 0.00 0.00 77 1010.4
20260505015102 12 315 0.0 0.0 0.00 0.00 0.00 77 1010.4
20260505014556 12 315 0.0 0.0 0.00 0.00 0.00 78 1010.4
20260505013544 13 184 0.0 0.0 0.00 0.00 0.00 77 1010.4
20260505013038 13 314 0.0 0.0 0.00 0.00 0.00 77 1010.3
20260505012532 13 263 0.0 0.0 0.00 0.00 0.00 78 1010.5
20260505012026 13 58 0.0 0.0 0.00 0.00 0.00 78 1010.5
20260505011014 13 18 0.0 0.0 0.00 0.00 0.00 76 1010.6
20260505010002 13 39 0.0 0.0 0.00 0.00 0.00 76 1010.7
20260505004949 13 0 0.0 0.0 0.00 0.00 0.00 75 1010.8
20260505004443 13 0 0.0 0.0 0.00 0.00 0.00 74 1010.9
20260505003937 13 356 0.0 0.0 0.00 0.00 0.00 74 1010.9
20260505003431 13 282 0.0 0.0 0.00 0.00 0.00 74 1010.9
20260505002925 13 135 0.0 0.0 0.00 0.00 0.00 74 1011.0
20260505002419 13 224 0.0 0.0 0.00 0.00 0.00 74 1011.1
20260505001913 13 207 0.0 0.0 0.00 0.00 0.00 73 1011.1
20260505001407 13 322 0.0 0.0 0.00 0.00 0.00 72 1011.1
20260505000901 14 293 0.0 0.0 0.00 0.00 0.00 72 1011.2
20260505000354 14 315 0.0 0.0 0.00 0.00 0.00 72 1011.2
20260504235848 14 315 0.0 0.0 0.00 0.00 0.00 71 1011.1
20260504233317 15 315 0.0 0.0 0.00 0.00 0.00 71 1011.3
20260504232811 15 322 0.0 0.0 0.00 0.00 0.00 71 1011.4
20260504232305 15 353 0.0 0.0 0.00 0.00 0.00 72 1011.4
20260504231759 15 309 0.0 0.0 0.00 0.00 0.00 72 1011.4
20260504225734 15 0 0.0 0.0 0.00 0.00 0.00 73 1011.6
20260504224215 15 321 0.0 0.0 0.00 0.00 0.00 70 1012.0
20260504222656 15 312 0.0 0.0 0.00 0.00 0.00 66 1012.3
20260504222150 15 118 0.0 0.0 0.00 0.00 0.00 65 1012.7
20260504221644 15 22 0.0 0.0 0.00 0.00 0.00 62 1012.7
20260504221137 16 19 0.0 0.0 0.00 0.00 0.00 61 1013.0
20260504220631 16 36 0.0 1.6 0.00 0.00 0.00 60 1013.2
20260504220125 16 89 1.6 3.2 0.00 0.00 0.00 59 1013.4
20260504215619 16 321 0.0 3.2 0.00 0.00 0.00 57 1013.6
20260504215112 16 356 0.0 0.0 0.00 0.00 0.00 55 1013.5
20260504214606 16 315 0.0 0.0 0.00 0.00 0.00 54 1013.5
20260504214059 16 292 0.0 3.2 0.00 0.00 0.00 55 1013.5
20260504213553 16 272 1.6 3.2 0.00 0.00 0.00 54 1013.4
20260504212541 16 291 0.0 0.0 0.00 0.00 0.00 52 1012.7
20260504212034 16 315 0.0 0.0 0.00 0.00 0.00 51 1012.5
20260504211528 16 315 0.0 0.0 0.00 0.00 0.00 51 1012.4
20260504211021 16 315 0.0 0.0 0.00 0.00 0.00 51 1012.3
20260504210515 16 308 0.0 0.0 0.00 0.00 0.00 51 1012.3
20260504210009 16 336 0.0 0.0 0.00 0.00 0.00 50 1012.3
20260504205502 16 0 0.0 0.0 0.00 0.00 0.00 50 1012.3
20260504204956 17 0 0.0 0.0 0.00 0.00 0.00 49 1012.2
20260504204450 17 0 0.0 0.0 0.00 0.00 0.00 49 1012.3
20260504203943 17 0 0.0 0.0 0.00 0.00 0.00 49 1012.3
20260504203437 17 0 0.0 0.0 0.00 0.00 0.00 48 1012.4
20260504202930 17 0 0.0 0.0 0.00 0.00 0.00 48 1012.3
20260504202424 17 0 0.0 0.0 0.00 0.00 0.00 48 1012.3
20260504201917 17 0 0.0 0.0 0.00 0.00 0.00 47 1012.3
20260504201411 18 0 0.0 0.0 0.00 0.00 0.00 47 1012.3
20260504200904 18 0 0.0 0.0 0.00 0.00 0.00 47 1012.4
20260504200358 18 0 0.0 0.0 0.00 0.00 0.00 47 1012.4
20260504195851 18 0 0.0 0.0 0.00 0.00 0.00 47 1012.5
20260504195345 18 0 0.0 0.0 0.00 0.00 0.00 46 1012.5
20260504194839 18 0 0.0 0.0 0.00 0.00 0.00 46 1012.5
20260504194332 18 0 0.0 0.0 0.00 0.00 0.00 45 1012.4
20260504193825 18 0 0.0 0.0 0.00 0.00 0.00 45 1012.5
20260504193319 18 0 0.0 0.0 0.00 0.00 0.00 44 1012.5
20260504192812 18 0 0.0 0.0 0.00 0.00 0.00 44 1012.5
20260504191759 19 0 0.0 0.0 0.00 0.00 0.00 44 1012.3
20260504191252 19 348 0.0 0.0 0.00 0.00 0.00 43 1012.3
20260504190746 19 357 0.0 3.2 0.00 0.00 0.00 43 1012.3
20260504185733 20 328 1.6 3.2 0.00 0.00 0.00 42 1012.3
20260504184719 20 328 1.6 3.2 0.00 0.00 0.00 42 1012.2
20260504184213 20 333 1.6 3.2 0.00 0.00 0.00 41 1012.1
20260504183706 20 342 0.0 1.6 0.00 0.00 0.00 41 1012.0
20260504183159 21 318 1.6 3.2 0.00 0.00 0.00 41 1012.0
20260504182652 21 334 1.6 3.2 0.00 0.00 0.00 40 1012.0
20260504182145 21 334 1.6 3.2 0.00 0.00 0.00 40 1012.0
20260504181639 21 327 1.6 3.2 0.00 0.00 0.00 40 1012.0
20260504181132 22 336 1.6 3.2 0.00 0.00 0.00 39 1011.9
20260504180118 22 333 1.6 3.2 0.00 0.00 0.00 38 1011.9
20260504175611 22 336 0.0 1.6 0.00 0.00 0.00 38 1011.9
20260504175104 23 336 0.0 1.6 0.00 0.00 0.00 38 1011.9
20260504174557 23 348 0.0 1.6 0.00 0.00 0.00 37 1011.9
20260504173543 23 342 0.0 1.6 0.00 0.00 0.00 37 1011.9
20260504173036 23 0 1.6 3.2 0.00 0.00 0.00 36 1011.9
20260504172529 23 354 0.0 1.6 0.00 0.00 0.00 36 1012.0
20260504172022 24 359 0.0 3.2 0.00 0.00 0.00 35 1012.0
20260504171008 24 0 0.0 3.2 0.00 0.00 0.00 35 1012.0
20260504170501 24 3 0.0 1.6 0.00 0.00 0.00 35 1012.0
20260504160334 26 15 1.6 3.2 0.00 0.00 0.00 33 1012.3
20260504150714 26 360 1.6 4.8 0.00 0.00 0.00 31 1012.6
20260504150207 27 3 1.6 4.8 0.00 0.00 0.00 31 1012.6
20260504141053 27 15 1.6 3.2 0.00 0.00 0.00 31 1012.9
20260504140545 27 9 1.6 3.2 0.00 0.00 0.00 31 1013.0
20260504130417 27 13 1.6 4.8 0.00 0.00 0.00 30 1013.4
20260504120248 27 73 3.2 8.0 0.00 0.00 0.00 29 1013.8
20260504110627 26 27 1.6 4.8 0.00 0.00 0.00 33 1014.4
20260504110120 26 98 1.6 6.4 0.00 0.00 0.00 32 1014.5
20260504100459 26 20 3.2 3.2 0.00 0.00 0.00 34 1015.1
20260504081223 24 359 0.0 3.2 0.00 0.00 0.00 38 1014.8
20260504080716 24 36 1.6 3.2 0.00 0.00 0.00 38 1014.8
20260504050328 8 193 0.0 0.0 0.00 0.00 0.00 69 1014.4
20260504045822 8 301 0.0 0.0 0.00 0.00 0.00 69 1014.4
20260504045316 8 219 0.0 0.0 0.00 0.00 0.00 70 1014.4
20260504044811 8 246 0.0 0.0 0.00 0.00 0.00 68 1014.3
20260504044305 8 73 0.0 0.0 0.00 0.00 0.00 69 1014.2
20260504043759 8 225 0.0 0.0 0.00 0.00 0.00 67 1014.2
20260504043253 8 312 0.0 0.0 0.00 0.00 0.00 66 1014.2